This is the latest recevied weather packets stored in our database for station/object N1MCJ. If no packets are shown the sender has not sent any weather packets the latest 10 day(s).
| Time | Temp. | Humidity | Pressure | Rain* | Wind** | Luminosity | Snow |
|---|---|---|---|---|---|---|---|
| 1777740321 | 11.67° C | 82% | 1002.7 hPa | 0 mm | - | 88 W/m² | - |
| 1777739421 | 11.11° C | 82% | 1002.7 hPa | 0 mm | - | 37 W/m² | - |
| 1777738517 | 11.67° C | 81% | 1002.8 hPa | 0 mm | - | 27 W/m² | - |
| 1777737616 | 11.67° C | 81% | 1002.6 hPa | 0 mm | - | 21 W/m² | - |
| 1777736716 | 11.67° C | 78% | 1002.8 hPa | 0 mm | - | 38 W/m² | - |
| 1777735554 | 12.22° C | 78% | 1002.8 hPa | 0 mm | - | 90 W/m² | - |
| 1777734652 | 13.33° C | 76% | 1003.1 hPa | 0 mm | - | 130 W/m² | - |
| 1777733747 | 11.67° C | 79% | 1002.9 hPa | 0 mm | - | 127 W/m² | - |
| 1777732843 | 11.67° C | 82% | 1003.1 hPa | 0 mm | - | 115 W/m² | - |
| 1777731940 | 11.11° C | 82% | 1003.3 hPa | 0 mm | - | 87 W/m² | - |
| 1777731038 | 11.11° C | 85% | 1003.2 hPa | 0 mm | - | 123 W/m² | - |
| 1777730133 | 10.56° C | 86% | 1003.1 hPa | 0 mm | - | 109 W/m² | - |
| 1777729230 | 10.56° C | 89% | 1003.3 hPa | 0 mm | - | 115 W/m² | - |
| 1777728326 | 10° C | 91% | 1003.1 hPa | 0 mm | - | 75 W/m² | - |
| 1777727422 | 10° C | 90% | 1003.2 hPa | 0 mm | - | 76 W/m² | - |
| 1777726520 | 10° C | 94% | 1003.1 hPa | 0 mm | - | 67 W/m² | - |
| 1777725616 | 9.44° C | 93% | 1003.1 hPa | 0 mm | - | 53 W/m² | - |
| 1777724713 | 8.89° C | 95% | 1003.2 hPa | 0 mm | - | 48 W/m² | - |
| 1777723811 | 8.89° C | 97% | 1003.4 hPa | 0 mm | - | 62 W/m² | - |
| 1777722908 | 8.89° C | 99% | 1003.2 hPa | 0 mm | - | 51 W/m² | - |
| 1777722003 | 8.33° C | 99% | 1003.1 hPa | 0 mm | - | 36 W/m² | - |
| 1777721102 | 7.78° C | 99% | 1002.9 hPa | 0 mm | - | 15 W/m² | - |
| 1777720200 | 7.78° C | 99% | 1003.3 hPa | 1.78 mm | - | 4 W/m² | - |
| 1777719298 | 8.33° C | 99% | 1003.5 hPa | 3.05 mm | - | 3 W/m² | - |
| 1777718396 | 8.33° C | 99% | 1003.6 hPa | 0 mm | - | 0 W/m² | - |
* Rain latest hour (hover to see other rain measurements)
** Current wind speed in m/s (hover to see current wind gust speed)